Starlink 30545

operational
NORAD ID: 58000 Int'l Des: 2023-153 Owner: SPXS Country: US Constellation: starlink
LEOCIRCULAR

Über Starlink 30545

Beschreibung wird geladen...

Live-Position

3D-Globus wird geladen...

Nächste Überflüge

Höhenverlauf

Altitude vs Time

uPlot chart will show altitude changes over time

Zweizeiliger Elementsatz

1 58000U 23153K 25350.77535574 .00000189 00000-0 29046-4 0 9998
2 58000 43.0035 159.3022 0000784 258.1304 101.9451 15.02527200122408
Epoch: 16. Dez. 2025 • Age: 17 hours

Aktueller Status

Höhe 570.4 km
Geschwindigkeit 7.58 km/s
Subsatellitenpunkt -39.51°S, 135.69°E
Startdatum 5. Okt. 2023
Alter 2.2 years
Typ internet

Technische Details

Klassifizierung Payload
Masse 730.00 kg
Trockenmasse 700.00 kg
Gesamtmasse 730.00 kg
Länge 0.30 m
Durchmesser 4.10 m
Spannweite 29.00 m
Form Box + pan
Hersteller SPXS
Bus-Typ Starlink V2M
Phasenstatus In Orbit
Besitzer/Staat SPXS/US

Große Konstellationen

Loading constellations...